Location: Dobel
(48.7976°N, 8.4940°E)
Time: 19:51:33
(UTC+00:00)

Daily predictions for brighter satellites

Satellite Brightness Start Highest point End
(mag) Time Altitude Azimuth Time Altitude Azimuth Time Altitude Azimuth
ATLAS 5 CENTAUR R/B 2.1 16:08:36 10° NW 16:12:56 72° SW 16:18:18 10° SSE
Cosmos 1844 Rocket 4.4 16:12:22 10° WSW 16:17:05 28° NW 16:21:51 10° NNE
Cosmos 2344 4.3 16:10:52 10° NW 16:17:42 36° NNE 16:26:03 10° E
Cosmos 1802 Rocket 4.2 16:11:32 10° S 16:17:58 85° W 16:24:26 10° N
Cosmos 1025 Rocket 4.3 16:15:16 10° NNW 16:19:23 45° W 16:23:28 10° SSW
Iridium 4 Rocket 3.6 16:14:37 10° S 16:19:36 72° W 16:24:12 10° N
SAR-Lupe-4 4.1 16:16:52 10° SE 16:20:12 37° ENE 16:23:33 10° N
ISS -3.2 16:24:38 10° SW 16:27:52 46° SSE 16:30:57 11° ENE
CZ-2D R/B 3.3 16:26:33 10° SE 16:29:28 35° ENE 16:32:23 10° N
COSMOS 2406 4.2 16:25:20 10° NNW 16:30:03 26° NE 16:34:47 10° E
Cosmos 1833 Rocket 3.4 16:24:38 10° NW 16:30:11 59° WSW 16:35:43 10° S
Cosmos 407 Rocket 3.8 16:25:41 10° S 16:30:34 44° ESE 16:35:27 10° NE
Cosmos 1484 Rocket 3.5 16:28:12 10° S 16:31:38 52° W 16:35:06 10° NNW
Cosmos 2016 Rocket 4.2 16:25:34 10° SSW 16:31:53 80° W 16:38:18 10° N
Cosmos 1812 3.5 16:30:29 10° SE 16:32:35 18° E 16:34:33 11° NE
CBERS-1 4.5 16:28:54 10° S 16:33:58 68° WSW 16:39:06 10° NNW
IRS-P3 4.4 16:29:37 10° SE 16:34:39 45° ENE 16:39:43 10° N
TIMED 4.4 16:30:30 10° SSW 16:34:44 73° ESE 16:39:01 10° NNE
Tsikada Rocket 4.1 16:29:03 10° N 16:35:31 88° W 16:41:52 10° S
Cosmos 2084 Rocket 4.2 16:35:42 10° WSW 16:39:44 47° NW 16:43:49 10° NE
SMAP 3.0 16:37:06 10° SSE 16:41:45 80° ENE 16:46:27 10° NNW
Cosmos 44 Rocket 3.8 16:39:00 10° S 16:43:28 41° ESE 16:47:37 12° NE
Cosmos 540 Rocket 3.4 16:39:38 10° NNW 16:44:47 69° ENE 16:49:52 10° SSE
SJ 16-02 2.6 16:42:37 10° SE 16:45:47 20° E 16:47:54 15° ENE
SPOT 1/Viking Rocket 4.1 16:41:57 10° SE 16:46:35 35° ENE 16:51:15 10° N
Radarsat 4.5 16:41:28 10° SSE 16:46:38 80° ENE 16:51:50 10° NNW
Cosmos 1869 3.1 16:44:05 10° S 16:47:30 52° E 16:50:56 10° NNE
YAOGAN 1 3.6 16:45:08 10° ESE 16:48:28 23° ENE 16:51:49 10° NNE
IGS 5A 4.2 16:45:03 10° S 16:48:56 55° W 16:52:52 10° NNW
SL-16 R/B 3.1 16:46:33 10° N 16:52:44 62° WNW 16:58:51 10° SW
Cosmos 1763 Rocket 3.5 16:47:59 10° NNW 16:53:14 88° WSW 16:58:22 10° SSE
Landsat 7 3.7 16:49:17 10° SSE 16:53:55 77° ENE 16:58:35 10° N
Nadezhda 4 Rocket 4.3 16:52:36 10° N 16:58:34 43° ENE 17:04:26 10° SE
Timation 1 Rocket 4.4 16:52:57 10° NNW 16:58:57 89° WSW 17:04:56 10° SSE
RESURS DK-1 2.4 16:54:57 10° NNW 16:58:58 77° WSW 17:02:57 10° SSE
Cosmos 1140 Rocket 4.0 16:54:31 10° SW 16:59:38 59° WNW 17:04:44 10° NNE
Aureole 3 Rocket 2.5 16:57:39 10° SSE 17:00:31 44° E 17:03:40 10° NNE
CZ-4C R/B 3.7 16:57:44 10° WNW 17:01:50 25° NNW 17:06:51 10° NE
Resurs 1-3 4.4 16:59:02 10° SE 17:02:43 29° ENE 17:06:25 10° N
UNK 4.0 17:01:11 10° N 17:05:48 70° WNW 17:10:22 10° SSW
SJ-6F 4.2 17:01:57 10° SSE 17:05:50 73° ENE 17:09:46 10° N
Meteor 2-12 Rocket 4.5 17:03:23 10° N 17:09:31 84° W 17:15:34 10° S
Cosmos 1400 Rocket 3.4 17:06:36 10° SSE 17:09:58 31° E 17:11:07 25° ENE
Cosmos 371 Rocket 4.1 17:06:12 10° SSE 17:10:18 29° E 17:12:04 23° ENE
SJ-12 4.0 17:06:33 10° S 17:10:19 71° WSW 17:14:08 10° NNW
Cosmos 1536 Rocket 3.7 17:07:54 10° N 17:12:12 48° ENE 17:16:28 10° SSE
SAR-Lupe-3 3.8 17:13:47 17° N 17:15:41 77° WNW 17:18:18 10° SSW
Helios 1A Rocket 3.8 17:16:48 23° ESE 17:16:48 23° ESE 17:18:49 10° SSE
Okean 2 Rocket 3.5 17:13:16 10° SSE 17:17:19 37° E 17:20:03 18° NNE
Cosmos 489 Rocket 4.5 17:12:50 10° NNW 17:19:02 60° ENE 17:25:11 10° SE
NOAA 6 4.4 17:20:54 10° SE 17:25:42 41° ENE 17:30:30 10° N
SL-12 R/B(2) 4.4 17:18:40 10° SW 17:26:43 89° NW 17:35:47 13° NE
Geosat 4.5 17:25:22 27° E 17:27:16 38° NE 17:31:52 10° NNW
COSMO-SKYMED 1 2.8 17:26:49 33° ENE 17:27:52 39° E 17:31:45 10° SSE
Resurs 01 Rocket 3.3 17:30:11 18° NNE 17:30:11 18° NNE 17:31:47 10° N
Cosmos 1943 Rocket 2.3 17:24:31 10° SSW 17:30:08 76° WNW 17:35:17 12° NNE
Timation 2 Rocket 4.3 17:24:39 10° SW 17:31:33 77° WNW 17:38:22 10° NNE
Cosmos 841 Rocket 3.5 17:28:48 10° NNW 17:34:00 59° ENE 17:38:54 12° SE
Cosmos 2251 Rocket 3.4 17:28:47 10° SSW 17:34:03 83° ESE 17:38:36 15° NNE
Cosmos 2058 3.0 17:30:12 10° NNW 17:34:10 74° W 17:38:08 10° S
SJ-7 4.0 17:32:15 10° SSE 17:35:52 64° ENE 17:39:32 10° N
BREEZE-M DEB (TANK) 2.4 17:35:10 10° WSW 17:37:51 83° SSE 17:39:49 35° E
Cosmos 2082 Rocket 2.4 17:33:35 10° NNW 17:39:12 73° WSW 17:44:47 10° SSE
ATLAS 2AS CENTAUR R/B 3.1 17:33:35 10° NW 17:39:59 41° NNE 17:42:14 32° ENE
Cosmos 1346 Rocket 4.3 17:37:16 10° N 17:38:39 20° N 17:38:39 20° N
IRAS Rocket 4.1 17:37:22 10° SSE 17:42:55 82° ENE 17:48:28 10° NNW
Cosmos 2278 Rocket 2.5 17:38:03 10° SW 17:43:40 65° WNW 17:48:32 14° NNE
MOS 1 Rocket 3.8 17:40:58 10° S 17:45:13 56° W 17:49:41 10° NNW
Cosmos 1464 Rocket 3.9 17:43:37 10° S 17:49:55 90° W 17:56:11 10° N
ARIANE 5 R/B 4.3 17:45:52 10° SSW 17:50:18 32° W 17:54:47 10° NNW
Cosmos 1634 Rocket 4.4 17:44:52 10° SSE 17:57:51 - NNE 17:50:01 37° E
CZ-2D R/B 3.7 17:46:49 10° S 17:50:57 70° WSW 17:55:09 10° NNW
Meteor 2-1 Rocket 4.4 17:45:52 10° S 17:51:38 56° E 17:57:26 10° NNE
Cosmos 2369 Rocket 3.9 17:48:41 10° SSE 17:50:08 16° SE 17:50:08 16° SE
USA 215 4.3 17:48:03 10° SSE 17:54:13 43° SW 18:00:24 10° WNW
Cosmos 1862 3.8 17:53:01 10° NNW 17:56:33 52° W 18:00:06 10° S
PSLV R/B 3.3 17:52:41 10° SSE 17:56:44 84° WSW 18:00:47 10° NNW
Cosmos 2151 Rocket 4.0 17:56:06 10° SSW 18:00:33 65° WNW 18:05:03 10° N
Cosmos 1190 Rocket 4.2 17:56:38 10° SSW 18:01:55 70° WNW 18:05:27 21° NNE
Cosmos 2034 Rocket 3.8 17:57:39 10° S 18:03:51 79° E 18:10:09 10° NNE
ISS -2.7 18:01:18 10° W 18:03:52 44° WNW 18:03:52 44° WNW
Cosmos 676 Rocket 3.9 17:59:40 10° SSW 18:04:58 81° ESE 18:06:42 44° NNE
Okean 1 Rocket 3.0 18:02:48 10° S 18:07:12 83° WNW 18:08:25 48° N
SKYMED 2 4.1 18:03:51 15° N 18:07:23 58° WNW 18:11:39 10° SSW
Cosmos 1656 Rocket 3.6 18:02:12 10° S 18:07:39 59° ESE 18:08:00 58° E
USA 281 3.3 18:11:29 48° ENE 18:12:13 50° NE 18:18:31 10° NNW
Sich 1 Rocket 3.8 18:08:26 10° SSW 18:12:58 73° W 18:14:56 34° N
Cosmos 1954 Rocket 4.2 18:09:06 10° SSW 18:14:21 68° WNW 18:16:53 31° N
COSMOS 2406 3.4 18:09:13 10° NNW 18:14:53 71° WSW 18:19:01 19° SSE
Cosmos 1932 4.4 18:08:46 10° SSW 18:15:04 69° ESE 18:16:22 55° ENE
Cosmos 1092 Rocket 3.8 18:10:25 10° N 18:16:42 77° E 18:22:53 10° SSE
BlueWalker 3 4.2 18:14:47 10° SSW 18:15:40 16° SSW 18:15:40 16° SSW
Cosmos 2026 Rocket 3.8 18:15:35 10° N 18:21:41 88° W 18:27:51 10° S
SJ 16-02 2.2 18:19:26 10° SW 18:23:35 46° WNW 18:24:29 40° NNW
YAOGAN 1 3.7 18:20:02 10° S 18:24:05 43° W 18:28:10 10° NNW
Cosmos 44 Rocket 4.5 18:20:25 10° WSW 18:24:56 38° NW 18:26:13 32° N
Cosmos 2344 3.9 18:25:09 10° NW 18:33:07 88° SW 18:38:34 32° SE
Cosmos 2297 Rocket 4.5 18:32:30 10° N 18:33:09 11° N 18:33:09 11° N
Meteor 2-3 Rocket 4.2 18:31:59 10° NNW 18:37:35 59° W 18:43:06 10° S
Cosmos 371 Rocket 4.4 18:45:50 10° SW 18:50:22 40° WNW 18:50:35 40° NW
CZ-4C R/B 4.1 18:47:46 10° NW 18:51:49 22° N 18:51:49 22° N
Resurs 01 Rocket 4.1 19:07:36 16° NNW 19:07:36 16° NNW 19:08:35 10° NNW
BREEZE-M DEB (TANK) 4.5 19:09:12 10° W 19:11:47 51° W 19:11:47 51° W
Cosmos 1943 Rocket 4.4 19:10:58 10° W 19:14:50 19° NW 19:16:48 16° NNW
Cosmos 2278 Rocket 4.5 19:25:17 10° WNW 19:28:54 17° NW 19:30:23 15° NNW
ATLAS 2AS CENTAUR R/B 3.3 19:24:34 10° NW 19:29:41 50° WNW 19:29:41 50° WNW
USA 281 4.5 19:58:22 35° WNW 19:58:22 35° WNW 20:02:59 10° NW
